Weather History for KCOD - October, 2012

Change the Weather History Date:

Sunday, October 28, 2012

  Actual Average Record
Temperature  
Mean Temperature 48 °F -  
Max Temperature 60 °F 53 °F 79 °F (1937)
Min Temperature 37 °F 29 °F 2 °F (1925)
Degree Days  
Heating Degree Days 16    
Moisture  
Dew Point 31 °F    
Average Humidity 47    
Maximum Humidity 66    
Minimum Humidity 31    
Precipitation  
Precipitation 0.01 in - - ()
Sea Level Pressure  
Sea Level Pressure 29.93 in    
Wind  
Wind Speed 13 mph (WSW)    
Max Wind Speed 24 mph    
Max Gust Speed 45 mph    
Visibility 10 miles    
Events      
Averages and records for this station are not official NWS values.
T = Trace of Precipitation, MM = Missing Value Source: NWS Daily Summary

Daily Weather History Graph

Daily Weather History Graph

Search for Another Location

Airport or City:

Trip Planner

Search our weather history database for the weather conditions in past years. The results will help you decide how hot, cold, wet, or windy it might be!

Date:

Astronomy

Oct. 28, 2012 Rise Set
Actual Time 7:48 AM MDT 6:10 PM MDT
Civil Twilight 7:18 AM MDT 6:40 PM MDT
Nautical Twilight 6:44 AM MDT 7:14 PM MDT
Astronomical Twilight 6:10 AM MDT 7:48 PM MDT
Moon 5:29 PM MDT (10/28) 6:44 AM MDT (10/28)
Length of Visible Light 11h 21m
Length of Day
10h 21m
Waxing Gibbous, 99% of the Moon is Illuminated
Oct 28
Waxing Gibbous
Oct 29
Full
Nov 6
Last Quarter
Nov 13
New
Nov 20
First Quarter

Hourly Weather History & Observations

Time (MDT) Temp. Windchill Dew Point Humidity Pressure Visibility Wind Dir Wind Speed Gust Speed Precip Events Conditions
12:35 AM 39.2 °F 30.8 °F 26.6 °F 61% 29.99 in 10.0 mi South 15.0 mph - N/A   Overcast
12:55 AM 42.8 °F 35.8 °F 24.8 °F 49% 29.98 in 10.0 mi SSW 13.8 mph 21.9 mph N/A   Overcast
1:15 AM 37.4 °F 32.1 °F 19.4 °F 48% 29.98 in 10.0 mi South 6.9 mph - N/A   Mostly Cloudy
1:35 AM 41.0 °F 34.7 °F 24.8 °F 53% 29.97 in 10.0 mi SE 10.4 mph 16.1 mph N/A   Mostly Cloudy
1:55 AM 37.4 °F 29.8 °F 19.4 °F 48% 29.97 in 10.0 mi South 11.5 mph - N/A   Mostly Cloudy
2:15 AM 42.8 °F 36.2 °F 24.8 °F 49% 29.96 in 10.0 mi SSW 12.7 mph 23.0 mph N/A   Overcast
2:35 AM 44.6 °F 40.2 °F 26.6 °F 49% 29.96 in 10.0 mi SSW 8.1 mph - N/A   Overcast
2:55 AM 44.6 °F 38.8 °F 26.6 °F 49% 29.95 in 10.0 mi WSW 11.5 mph 23.0 mph N/A   Mostly Cloudy
3:15 AM 44.6 °F 38.1 °F 26.6 °F 49% 29.95 in 10.0 mi SW 13.8 mph 23.0 mph N/A   Mostly Cloudy
3:35 AM 44.6 °F 38.4 °F 26.6 °F 49% 29.94 in 10.0 mi WSW 12.7 mph 18.4 mph N/A   Mostly Cloudy
4:15 AM 42.8 °F 35.4 °F 26.6 °F 53% 29.94 in 10.0 mi West 15.0 mph 24.2 mph N/A   Mostly Cloudy
4:35 AM 44.6 °F 40.2 °F 30.2 °F 57% 29.93 in 10.0 mi West 8.1 mph 29.9 mph N/A   Overcast
4:55 AM 44.6 °F 40.7 °F 30.2 °F 57% 29.94 in 10.0 mi WSW 6.9 mph - N/A   Overcast
5:15 AM 44.6 °F 39.2 °F 30.2 °F 57% 29.93 in 10.0 mi South 10.4 mph - N/A   Overcast
5:35 AM 44.6 °F 36.4 °F 30.2 °F 57% 29.92 in 10.0 mi South 20.7 mph - N/A   Mostly Cloudy
5:55 AM 44.6 °F 43.1 °F 28.4 °F 53% 29.95 in 10.0 mi WSW 3.5 mph - N/A   Overcast
6:15 AM 44.6 °F 43.1 °F 30.2 °F 57% 29.93 in 10.0 mi South 3.5 mph - N/A   Overcast
6:35 AM 44.6 °F 43.1 °F 33.8 °F 66% 29.93 in 10.0 mi West 3.5 mph - N/A   Overcast
6:55 AM 44.6 °F 41.4 °F 33.8 °F 66% 29.93 in 10.0 mi NNE 5.8 mph - N/A   Overcast
7:15 AM 44.6 °F 41.4 °F 33.8 °F 66% 29.94 in 10.0 mi NNW 5.8 mph - N/A   Overcast
7:35 AM 44.6 °F 40.7 °F 33.8 °F 66% 29.93 in 10.0 mi WNW 6.9 mph - N/A   Overcast
7:55 AM 44.6 °F 38.4 °F 33.8 °F 66% 29.93 in 10.0 mi West 12.7 mph 19.6 mph N/A   Scattered Clouds
8:16 AM 44.6 °F 38.8 °F 33.8 °F 66% 29.92 in 10.0 mi West 11.5 mph - N/A   Clear
9:15 AM 48.2 °F - 32.0 °F 54% 29.92 in 10.0 mi WSW 20.7 mph 36.8 mph N/A   Scattered Clouds
9:35 AM 50.0 °F - 30.2 °F 47% 29.91 in 10.0 mi WSW 17.3 mph 33.4 mph N/A   Mostly Cloudy
9:55 AM 50.0 °F - 32.0 °F 50% 29.92 in 10.0 mi WSW 17.3 mph 32.2 mph N/A   Scattered Clouds
10:15 AM 51.8 °F - 32.0 °F 47% 29.93 in 10.0 mi West 17.3 mph 31.1 mph N/A   Scattered Clouds
10:35 AM 51.8 °F - 32.0 °F 47% 29.92 in 10.0 mi WNW 13.8 mph 19.6 mph N/A   Scattered Clouds
11:15 AM 53.6 °F - 30.2 °F 41% 29.92 in 10.0 mi West 13.8 mph 23.0 mph N/A   Scattered Clouds
11:35 AM 55.4 °F - 30.2 °F 38% 29.93 in 10.0 mi West 15.0 mph 26.5 mph N/A   Clear
11:55 AM 55.4 °F - 30.2 °F 38% 29.92 in 10.0 mi West 16.1 mph 21.9 mph N/A   Clear
12:15 PM 55.4 °F - 30.2 °F 38% 29.92 in 10.0 mi WNW 9.2 mph 17.3 mph N/A   Clear
12:35 PM 55.4 °F - 30.2 °F 38% 29.92 in 10.0 mi West 13.8 mph 31.1 mph N/A   Clear
12:55 PM 55.4 °F - 30.2 °F 38% 29.91 in 10.0 mi West 18.4 mph 24.2 mph N/A   Clear
1:15 PM 55.4 °F - 30.2 °F 38% 29.91 in 10.0 mi West 18.4 mph 24.2 mph N/A   Clear
1:35 PM 57.2 °F - 30.2 °F 36% 29.90 in 10.0 mi WNW 9.2 mph - N/A   Clear
1:55 PM 59.0 °F - 30.2 °F 34% 29.90 in 10.0 mi West 17.3 mph 36.8 mph N/A   Clear
2:15 PM 60.8 °F - 30.2 °F 31% 29.89 in 10.0 mi West 24.2 mph 39.1 mph N/A   Partly Cloudy
2:35 PM 60.8 °F - 32.0 °F 34% 29.90 in 10.0 mi West 24.2 mph 34.5 mph N/A   Partly Cloudy
2:55 PM 60.8 °F - 30.2 °F 31% 29.88 in 10.0 mi West 23.0 mph 33.4 mph N/A   Clear
3:15 PM 60.8 °F - 32.0 °F 34% 29.88 in 10.0 mi WSW 18.4 mph 33.4 mph N/A   Clear
3:35 PM 59.0 °F - 30.2 °F 34% 29.89 in 10.0 mi West 17.3 mph 33.4 mph N/A   Clear
3:55 PM 57.2 °F - 32.0 °F 38% 29.89 in 10.0 mi WSW 19.6 mph 32.2 mph N/A   Scattered Clouds
4:35 PM 57.2 °F - 32.0 °F 38% 29.90 in 10.0 mi West 24.2 mph 38.0 mph N/A   Partly Cloudy
4:55 PM 57.2 °F - 32.0 °F 38% 29.90 in 10.0 mi West 19.6 mph 35.7 mph N/A   Clear
5:15 PM 55.4 °F - 32.0 °F 41% 29.90 in 10.0 mi WSW 23.0 mph 39.1 mph N/A   Clear
5:35 PM 55.4 °F - 32.0 °F 41% 29.91 in 10.0 mi WSW 24.2 mph 35.7 mph N/A   Clear
5:55 PM - - - N/A% 29.90 in 10.0 mi WSW 20.7 mph 36.8 mph N/A   Clear
6:15 PM 55.4 °F - 32.0 °F 41% 29.92 in 10.0 mi West 20.7 mph 44.9 mph 0.01 in   Clear
6:35 PM 55.4 °F - 32.0 °F 41% 29.92 in 10.0 mi WSW 20.7 mph 34.5 mph 0.01 in   Clear
6:55 PM 55.4 °F - 33.8 °F 44% 29.94 in 10.0 mi WSW 19.6 mph 27.6 mph 0.01 in   Clear
7:35 PM - - - N/A% 29.96 in 10.0 mi WNW 5.8 mph 16.1 mph N/A   Mostly Cloudy
7:55 PM - - - N/A% 29.96 in 10.0 mi WNW 9.2 mph 16.1 mph N/A   Partly Cloudy
8:15 PM 55.4 °F - 33.8 °F 44% 29.96 in 10.0 mi WSW 11.5 mph - N/A   Clear
8:35 PM 55.4 °F - 32.0 °F 41% 29.96 in 10.0 mi WSW 15.0 mph 23.0 mph N/A   Clear
8:55 PM 55.4 °F - 33.8 °F 44% 29.96 in 10.0 mi West 16.1 mph 26.5 mph N/A   Clear
9:15 PM 55.4 °F - 33.8 °F 44% 29.96 in 10.0 mi West 9.2 mph 17.3 mph N/A   Clear
9:35 PM 55.4 °F - 33.8 °F 44% 29.95 in 10.0 mi WSW 13.8 mph 23.0 mph N/A   Clear
9:55 PM 55.4 °F - 35.6 °F 47% 29.95 in 10.0 mi WSW 12.7 mph 23.0 mph N/A   Partly Cloudy
10:15 PM 55.4 °F - 35.6 °F 47% 29.96 in 10.0 mi WSW 15.0 mph 23.0 mph N/A   Scattered Clouds
10:55 PM 55.4 °F - 35.6 °F 47% 29.96 in 10.0 mi West 15.0 mph 24.2 mph N/A   Partly Cloudy
11:15 PM 55.4 °F - 35.6 °F 47% 29.96 in 10.0 mi WSW 16.1 mph 25.3 mph N/A   Clear
11:35 PM 55.4 °F - 35.6 °F 47% 29.97 in 10.0 mi West 11.5 mph 20.7 mph N/A   Clear
11:55 PM 55.4 °F - 35.6 °F 47% 29.96 in 10.0 mi WSW 13.8 mph 18.4 mph N/A   Partly Cloudy